Location: Kitt Peak
(31.9639°N, 111.5992°W)
Time: 14:04:13
(UTC-07:00)

SRMSAT - Pass Details

Date: 17 December 2025
Orbit: 846 x 863 km, 20.0° (Epoch: 13 January)

Event Time Altitude Azimuth Distance (km) Brightness Sun altitude
Exits shadow 06:07:31 - 239° (WSW) 2,657 ? -15.2°
Reaches altitude 10° 06:08:11 10° 235° (SW) 2,460 ? -15.0°
Maximum altitude 06:12:55 25° 182° (S) 1,644 ? -14.1°
Drops below altitude 10° 06:17:40 10° 128° (SE) 2,469 ? -13.1°
Sets 06:20:39 0° 115° (ESE) 3,408 ? -12.5°
